Latest Weather Observations for Alice Springs Airport

IDD60801

Issued at 1:05 pm CST Thursday 23 October 2014 (issued every 30 minutes, with the page automatically refreshed every 10 minutes)

About weather observations | Map of weather stations | Latest weather observations for NT | Other Formats
Station Details ID: 015590 Name: ALICE SPRINGS AIRPORT Lat: -23.80 Lon: 133.89 Height: 546.0 m
Data from the previous 72 hours. | See also: Recent months at Alice Springs Airport
Date/Time
CST
Temp
°C
App
Temp
°C
Dew
Point
Rel
Hum
%
Delta-T
°C
Wind Press
QNH
hPa
Press
MSL
hPa
Rain
since 9 am
mm
Dir
 
Spd
km/h
Gust
km/h
Spd
kts
Gust
kts
23/01:00pm 36.5 29.3 -5.1 7 19.6 E 24 39 13 21 1016.3 1013.5 0.0
23/12:30pm 36.2 29.4 -2.2 8 18.9 NNE 24 37 13 20 1016.7 1014.0 0.0
23/12:00pm 35.9 28.7 -5.0 7 19.2 NNE 24 37 13 20 1017.1 1014.4 0.0
23/11:30am 34.3 27.5 -2.0 10 17.7 NNE 24 33 13 18 1017.4 1014.7 0.0
23/11:12am 35.2 27.5 -2.8 9 18.4 N 28 37 15 20 1017.7 1015.0 0.0
23/11:00am 34.8 27.4 -3.6 8 18.3 N 26 41 14 22 1017.9 1015.1 0.0
23/10:30am 34.4 27.1 -2.8 9 17.9 N 26 41 14 22 1018.1 1015.3 0.0
23/10:00am 33.3 26.0 -3.1 9 17.3 NNE 26 35 14 19 1018.5 1015.8 0.0
23/09:30am 32.8 25.1 -3.1 10 17.0 NNE 28 39 15 21 1018.8 1016.1 0.0
23/09:00am 31.7 23.8 -1.9 11 16.1 N 30 39 16 21 1019.0 1016.3 0.0
23/08:30am 30.9 23.4 -1.7 12 15.6 NNE 28 37 15 20 1019.0 1016.3 0.0
23/08:00am 29.9 24.9 -1.2 13 14.9 NNE 15 22 8 12 1018.8 1016.1 0.0
23/07:30am 26.3 22.5 2.0 20 12.0 NE 11 15 6 8 1018.8 1016.1 0.0
23/07:00am 25.4 21.8 -1.9 16 12.5 SSE 7 9 4 5 1018.7 1016.0 0.0
23/06:30am 25.1 21.0 -0.5 18 12.0 ENE 11 13 6 7 1018.0 1015.2 0.0
23/06:00am 21.6 17.1 -0.2 23 10.0 ENE 13 17 7 9 1017.5 1014.8 0.0
23/05:30am 21.3 16.8 -0.4 23 9.9 ENE 13 17 7 9 1017.3 1014.6 0.0
23/05:00am 21.7 18.0 0.0 23 10.0 ENE 9 13 5 7 1017.0 1014.3 0.0
23/04:30am 23.4 20.1 -1.5 19 11.3 E 6 7 3 4 1016.8 1014.1 0.0
23/04:00am 22.7 18.4 -1.4 20 10.9 NE 11 13 6 7 1016.6 1013.8 0.0
23/03:30am 23.9 20.3 -2.0 18 11.7 NE 7 9 4 5 1016.5 1013.7 0.0
23/03:00am 23.3 18.7 -0.9 20 11.1 NE 13 15 7 8 1016.6 1013.8 0.0
23/02:30am 23.3 19.0 -1.3 19 11.2 ENE 11 13 6 7 1016.7 1014.0 0.0
23/02:00am 22.7 19.0 0.2 22 10.5 NE 9 13 5 7 1017.1 1014.4 0.0
23/01:30am 22.5 18.9 0.5 23 10.3 ENE 9 11 5 6 1017.4 1014.7 0.0
23/01:00am 23.2 19.1 -0.3 21 10.9 NE 11 13 6 7 1017.7 1015.0 0.0
23/12:30am 22.2 18.7 3.6 29 9.2 ENE 11 11 6 6 1018.1 1015.3 0.0
23/12:00am 24.1 20.4 0.0 20 11.3 NNE 9 9 5 5 1018.2 1015.4 0.0
 
Date/Time
CST
Temp
°C
App
Temp
°C
Dew
Point
Rel
Hum
%
Delta-T
°C
Wind Press
QNH
hPa
Press
MSL
hPa
Rain
since 9 am
mm
Dir
 
Spd
km/h
Gust
km/h
Spd
kts
Gust
kts
22/11:30pm 24.4 20.4 0.7 21 11.3 ENE 11 17 6 9 1018.3 1015.6 0.0
22/11:00pm 25.0 20.4 -0.8 18 12.0 E 13 15 7 8 1018.4 1015.7 0.0
22/10:30pm 26.8 22.5 -2.0 15 13.3 ENE 11 13 6 7 1018.6 1015.9 0.0
22/10:00pm 25.9 20.7 0.1 18 12.3 E 17 19 9 10 1018.4 1015.7 0.0
22/09:30pm 27.4 22.7 -1.8 14 13.6 E 13 17 7 9 1018.2 1015.4 0.0
22/09:00pm 27.0 22.5 -0.6 16 13.1 E 13 15 7 8 1018.0 1015.2 0.0
22/08:30pm 28.6 23.8 -2.8 12 14.5 E 13 15 7 8 1017.5 1014.8 0.0
22/08:00pm 29.1 24.4 -1.9 13 14.6 E 13 15 7 8 1017.2 1014.5 0.0
22/07:30pm 30.6 26.3 -2.0 12 15.5 E 11 13 6 7 1016.8 1014.1 0.0
22/07:00pm 31.4 27.2 -1.2 12 15.8 E 11 13 6 7 1016.5 1013.7 0.0
22/06:30pm 33.5 27.8 -3.5 9 17.5 E 17 24 9 13 1016.2 1013.4 0.0
22/06:00pm 34.5 28.9 -2.9 9 18.0 E 17 22 9 12 1016.0 1013.2 0.0
22/05:30pm 35.7 28.9 -5.0 7 19.1 E 22 32 12 17 1015.6 1012.9 0.0
22/05:00pm 35.6 28.8 -5.4 7 19.1 E 22 35 12 19 1015.7 1013.0 0.0
22/04:30pm 36.0 30.5 -5.8 7 19.4 E 15 19 8 10 1015.8 1013.1 0.0
22/04:00pm 36.1 31.6 -6.7 6 19.6 S 9 15 5 8 1015.7 1013.0 0.0
22/03:30pm 37.1 32.1 -8.1 5 20.4 SSW 11 20 6 11 1016.0 1013.2 0.0
22/03:00pm 35.4 28.6 -1.7 9 18.3 E 24 33 13 18 1016.2 1013.4 0.0
22/02:30pm 36.5 31.6 -7.1 6 19.9 SE 11 15 6 8 1016.5 1013.7 0.0
22/02:00pm 35.9 29.7 -5.0 7 19.2 ENE 19 33 10 18 1017.0 1014.3 0.0
22/01:30pm 35.3 30.2 -5.4 7 18.9 SE 13 26 7 14 1017.4 1014.7 0.0
22/01:00pm 36.0 29.3 -4.6 7 19.2 E 22 32 12 17 1018.0 1015.2 0.0
22/12:30pm 35.8 31.4 -6.0 6 19.3 E 9 24 5 13 1018.4 1015.7 0.0
22/12:00pm 34.9 29.7 -5.7 7 18.7 ESE 13 19 7 10 1018.8 1016.1 0.0
22/11:30am 34.8 28.3 -2.1 9 18.0 ENE 22 28 12 15 1019.3 1016.6 0.0
22/11:00am 33.9 26.9 -3.4 9 17.7 E 24 32 13 17 1019.6 1016.9 0.0
22/10:30am 33.8 27.6 -3.2 9 17.6 NNE 20 32 11 17 1019.9 1017.1 0.0
22/10:00am 32.9 26.4 -2.3 10 16.9 ENE 22 32 12 17 1020.2 1017.5 0.0
22/09:30am 32.1 25.3 -2.2 11 16.4 N 24 32 13 17 1020.2 1017.5 0.0
22/09:00am 32.0 26.1 -1.1 12 16.1 NNE 20 35 11 19 1020.1 1017.4 0.0
22/08:30am 30.3 23.7 -0.6 13 15.0 NE 24 32 13 17 1020.0 1017.3 0.0
22/08:00am 29.1 23.9 -0.2 15 14.2 NNE 17 24 9 13 1019.7 1017.0 0.0
22/07:30am 27.7 24.3 -0.3 16 13.4 ESE 7 9 4 5 1019.5 1016.8 0.0
22/07:20am 27.4 23.9 -1.4 15 13.5 ESE 7 9 4 5 1019.3 1016.6 0.0
22/07:00am 22.4 19.8 -1.7 20 10.8 ESE 2 9 1 5 1019.2 1016.5 0.0
22/06:30am 21.3 17.5 -0.8 23 10.0 ESE 9 11 5 6 1018.6 1015.9 0.0
22/06:00am 17.8 15.0 -2.9 24 8.7 SSW 2 7 1 4 1018.3 1015.6 0.0
22/05:30am 19.1 15.3 -3.5 21 9.5 SW 7 9 4 5 1017.9 1015.1 0.0
22/05:00am 18.0 15.8 -1.3 27 8.4 CALM 0 0 0 0 1017.4 1014.7 0.0
22/04:30am 19.1 16.8 -2.6 23 9.3 CALM 0 0 0 0 1017.0 1014.3 0.0
22/04:00am 19.9 16.0 -4.3 19 10.1 E 7 9 4 5 1016.7 1014.0 0.0
22/03:30am 21.8 17.6 -0.9 22 10.3 ENE 11 15 6 8 1016.7 1014.0 0.0
22/03:00am 22.2 17.8 -2.5 19 10.9 ENE 11 13 6 7 1016.6 1013.8 0.0
22/02:30am 22.8 18.3 -3.3 17 11.4 ENE 11 11 6 6 1016.5 1013.7 0.0
22/02:00am 23.7 19.2 -2.9 17 11.8 ENE 11 13 6 7 1016.6 1013.8 0.0
22/01:30am 23.3 18.0 -3.5 16 11.7 NE 15 19 8 10 1016.9 1014.2 0.0
22/01:00am 24.4 19.5 -3.0 16 12.2 NE 13 17 7 9 1017.2 1014.5 0.0
22/12:30am 26.1 20.6 -5.4 12 13.6 NE 15 17 8 9 1017.5 1014.8 0.0
22/12:00am 26.1 21.0 -5.4 12 13.6 NE 13 17 7 9 1018.1 1015.3 0.0
 
Date/Time
CST
Temp
°C
App
Temp
°C
Dew
Point
Rel
Hum
%
Delta-T
°C
Wind Press
QNH
hPa
Press
MSL
hPa
Rain
since 9 am
mm
Dir
 
Spd
km/h
Gust
km/h
Spd
kts
Gust
kts
21/11:30pm 25.8 20.7 -5.2 12 13.4 NE 13 15 7 8 1018.3 1015.6 0.0
21/11:00pm 25.6 19.8 -4.2 13 13.1 ENE 17 20 9 11 1018.7 1016.0 0.0
21/10:30pm 25.9 20.4 -5.0 12 13.4 ENE 15 17 8 9 1019.0 1016.3 0.0
21/10:00pm 25.8 20.7 -5.3 12 13.4 ENE 13 17 7 9 1019.0 1016.3 0.0
21/09:30pm 25.4 19.8 -5.9 12 13.3 ENE 15 17 8 9 1019.0 1016.3 0.0
21/09:00pm 25.9 20.8 -4.9 13 13.4 ENE 13 13 7 7 1018.7 1016.0 0.0
21/08:30pm 27.3 22.2 -5.1 11 14.2 E 13 13 7 7 1018.5 1015.8 0.0
21/08:00pm 28.6 23.2 -7.9 8 15.4 ESE 13 15 7 8 1018.2 1015.4 0.0
21/07:30pm 30.5 25.0 -9.5 7 16.7 ESE 13 15 7 8 1018.0 1015.2 0.0
21/07:00pm 31.6 26.1 -9.3 6 17.3 ESE 13 17 7 9 1017.4 1014.7 0.0
21/06:30pm 33.8 28.1 -12.0 5 18.9 SE 13 20 7 11 1017.0 1014.3 0.0
21/06:00pm 35.1 28.0 -14.5 3 19.9 ESE 20 26 11 14 1016.7 1014.0 0.0
21/05:30pm 35.1 29.8 -7.4 6 19.1 E 13 24 7 13 1016.4 1013.6 0.0
21/05:00pm 36.3 29.9 -12.2 4 20.4 ESE 17 37 9 20 1016.3 1013.5 0.0
21/04:30pm 36.0 29.6 -11.1 4 20.1 E 17 24 9 13 1016.3 1013.5 0.0
21/04:00pm 36.7 28.5 -12.8 4 20.7 ESE 26 33 14 18 1016.3 1013.5 0.0
21/03:30pm 35.9 29.1 -9.1 5 19.8 E 20 33 11 18 1016.5 1013.7 0.0
21/03:00pm 35.7 30.3 -8.5 5 19.6 NE 13 22 7 12 1016.7 1014.0 0.0
21/02:30pm 36.4 30.9 -9.9 5 20.2 ESE 13 24 7 13 1017.0 1014.3 0.0
21/02:00pm 36.7 29.9 -9.3 5 20.3 ESE 20 26 11 14 1017.2 1014.5 0.0
21/01:30pm 35.7 31.9 -5.7 7 19.2 NNW 6 17 3 9 1017.5 1014.8 0.0
21/01:00pm 35.8 30.7 -4.8 7 19.1 SE 13 26 7 14 1018.2 1015.4 0.0
21/12:30pm 35.4 30.4 -7.7 6 19.3 WNW 11 20 6 11 1018.7 1016.0 0.0
21/12:00pm 34.4 29.7 -5.1 8 18.3 NNW 11 28 6 15 1019.3 1016.6 0.0
21/11:30am 35.0 29.9 -5.3 7 18.7 NNE 13 22 7 12 1019.7 1017.0 0.0
21/11:00am 34.2 28.8 -4.6 8 18.1 N 15 22 8 12 1020.2 1017.5 0.0
21/10:30am 33.4 27.2 -5.1 8 17.7 NNE 19 30 10 16 1020.5 1017.8 0.0
21/10:00am 32.7 26.4 -5.8 8 17.4 N 19 28 10 15 1020.6 1017.9 0.0
21/09:30am 33.0 26.1 -6.6 7 17.7 N 22 33 12 18 1020.6 1017.9 0.0
21/09:00am 32.2 25.7 -5.7 8 17.1 NNE 20 30 11 16 1020.6 1017.9 0.0
21/08:30am 31.0 24.5 -5.7 9 16.4 NNE 20 30 11 16 1020.3 1017.6 0.0
21/08:00am 29.7 23.9 -4.8 10 15.5 NE 17 22 9 12 1020.2 1017.5 0.0
21/07:30am 27.4 23.3 -3.3 13 13.9 NE 9 15 5 8 1019.9 1017.1 0.0
21/07:24am 26.1 22.3 -3.9 13 13.3 ENE 7 9 4 5 1019.9 1017.1 0.0
21/07:00am 21.1 17.4 -2.9 20 10.4 E 7 9 4 5 1019.6 1016.9 0.0
21/06:30am 20.5 16.3 -3.9 19 10.3 E 9 11 5 6 1019.3 1016.6 0.0
21/06:00am 19.5 15.0 -3.5 21 9.7 E 11 13 6 7 1018.8 1016.1 0.0
21/05:30am 18.3 13.5 -2.3 24 8.8 ENE 13 17 7 9 1018.4 1015.7 0.0
21/05:00am 17.4 12.6 -2.9 25 8.5 E 13 15 7 8 1018.3 1015.6 0.0
21/04:30am 16.8 12.9 -4.2 23 8.5 ENE 7 9 4 5 1018.1 1015.3 0.0
21/04:00am 17.2 13.3 -1.3 28 8.0 ENE 9 11 5 6 1018.0 1015.2 0.0
21/03:30am 17.9 13.3 -4.4 21 9.1 E 11 11 6 6 1017.7 1015.0 0.0
21/03:00am 19.7 15.0 -4.9 18 10.1 ESE 11 13 6 7 1017.7 1015.0 0.0
21/02:30am 18.9 14.8 -3.1 22 9.3 ESE 9 11 5 6 1017.9 1015.1 0.0
21/02:00am 18.7 15.5 -0.7 27 8.6 E 6 9 3 5 1018.2 1015.4 0.0
21/01:30am 20.1 16.1 -2.6 21 9.8 E 9 9 5 5 1018.2 1015.4 0.0
21/01:00am 22.0 18.7 0.2 23 10.1 NE 7 9 4 5 1018.4 1015.7 0.0
21/12:30am 22.9 17.9 -4.1 16 11.6 E 13 15 7 8 1018.5 1015.8 0.0
21/12:00am 23.1 19.4 -4.5 15 11.8 ENE 6 7 3 4 1018.7 1016.0 0.0
 
Date/Time
CST
Temp
°C
App
Temp
°C
Dew
Point
Rel
Hum
%
Delta-T
°C
Wind Press
QNH
hPa
Press
MSL
hPa
Rain
since 9 am
mm
Dir
 
Spd
km/h
Gust
km/h
Spd
kts
Gust
kts
20/11:30pm 23.4 19.8 -2.4 18 11.5 ENE 7 9 4 5 1019.0 1016.3 0.0
20/11:00pm 23.7 20.2 1.4 23 10.7 NE 9 11 5 6 1019.2 1016.5 0.0
20/10:30pm 24.8 20.4 -2.1 17 12.2 ENE 11 15 6 8 1019.1 1016.4 0.0
20/10:00pm 25.4 20.4 -4.3 14 13.0 E 13 15 7 8 1019.1 1016.4 0.0
20/09:30pm 26.6 20.7 -6.1 11 14.0 ENE 17 20 9 11 1018.9 1016.2 0.0
20/09:00pm 26.9 20.9 -6.3 11 14.2 E 17 20 9 11 1018.6 1015.9 0.0
20/08:30pm 26.8 21.7 -4.9 12 13.9 E 13 15 7 8 1018.2 1015.4 0.0
20/08:00pm 27.0 22.1 -3.3 13 13.7 E 13 17 7 9 1017.9 1015.1 0.0
20/07:30pm 28.3 23.4 -3.2 12 14.4 E 13 13 7 7 1017.5 1014.8 0.0
20/07:00pm 30.8 25.5 -6.9 8 16.5 E 13 15 7 8 1017.1 1014.4 0.0
20/06:30pm 32.6 27.4 -6.6 7 17.5 E 13 19 7 10 1016.6 1013.8 0.0
20/06:00pm 34.0 28.3 -7.8 6 18.5 E 15 22 8 12 1016.3 1013.5 0.0
20/05:30pm 34.6 28.3 -10.4 5 19.2 E 17 30 9 16 1016.0 1013.2 0.0
20/05:00pm 35.3 29.2 -7.2 6 19.2 NE 17 30 9 16 1015.7 1013.0 0.0
20/04:30pm 35.0 28.6 -11.0 5 19.5 NE 17 32 9 17 1016.0 1013.2 0.0
20/04:00pm 35.8 28.3 -8.0 6 19.6 ENE 24 32 13 17 1016.0 1013.2 0.0
20/03:30pm 35.6 31.2 -6.0 7 19.2 S 9 13 5 7 1016.2 1013.4 0.0
20/03:00pm 36.0 30.4 -6.4 6 19.5 ENE 15 28 8 15 1016.4 1013.6 0.0
20/02:30pm 34.8 29.6 -6.6 7 18.8 N 13 22 7 12 1016.9 1014.2 0.0
20/02:00pm 35.5 29.5 -11.1 4 19.8 ESE 15 26 8 14 1017.3 1014.6 0.0
20/01:30pm 35.0 30.5 -6.5 7 18.9 ENE 9 11 5 6 1017.6 1014.9 0.0

Other Formats:

Comma delimited format used in spreadsheet applications
http://www.bom.gov.au/fwo/IDD60801/IDD60801.94326.axf

JavaScript Object Notation format (JSON) in row-major order
http://www.bom.gov.au/fwo/IDD60801/IDD60801.94326.json